RH
7 7 7 7 6 7 7 7 10 10 10 9 6 5 6 5 5 5 6 12 13 27 30 18 18 17 14 12 16 27 33 36 35 36 41 46 45 48 48 45 45 41 36 30 24 23 24 24 26 31 36 41 44 47 46 42 41 40 38 34 28 24 24 19 16 17 19 19 20 20 19 18 14 11 10 10 11 13 16 19 20 21 22 22 22 21 21 21 23 24 24 26 28 28 27 28 28
8 7 7 7 7 7 8 8 11 15 13 8 5 4 7 7 9 7 9 19 16 30 36 21 19 15 13 14 15 21 26 28 31 37 35 36 36 37 41 45 46 40 37 32 26 22 23 24 25 30 36 42 46 47 45 43 43 41 39 35 29 24 24 21 16 16 19 20 20 21 20 20 17 14 11 10 11 12 15 18 20 21 22 23 22 22 22 21 23 25 25 25 27 28 28 27 27
8 8 7 7 7 7 9 11 11 16 16 9 4 5 9 12 16 13 19 25 22 37 38 23 18 16 20 18 16 18 23 30 33 38 34 33 36 35 37 40 42 39 39 36 32 27 25 26 26 30 38 44 46 46 45 45 45 43 40 37 31 25 24 22 17 15 19 20 21 21 21 21 19 17 14 11 10 11 14 17 19 21 22 22 22 22 22 22 23 25 25 25 27 28 27 27 27
8 8 7 7 8 7 11 12 11 15 14 6 4 5 8 16 20 19 27 27 28 44 37 27 22 20 28 23 23 20 20 26 28 32 30 33 37 37 36 35 37 41 42 39 40 39 37 34 31 34 42 46 47 47 47 48 47 44 42 38 32 26 24 23 18 15 18 20 21 21 21 20 20 19 17 14 11 11 13 16 19 20 22 22 23 23 22 23 23 26 26 26 28 28 28 27 27
8 7 7 7 8 9 13 14 13 13 9 5 6 8 12 17 21 19 28 31 28 35 31 29 25 24 30 24 24 22 21 26 24 26 25 29 34 35 35 34 39 44 43 43 48 50 49 45 41 42 46 49 49 50 50 50 49 46 44 40 35 28 24 24 20 15 16 20 20 21 21 20 19 19 18 16 13 11 12 15 18 19 21 22 23 23 23 24 24 26 27 26 28 28 28 28 27
7 7 6 7 9 13 19 20 16 10 5 6 6 12 17 16 19 16 21 31 27 27 29 30 27 30 32 25 25 24 30 38 35 34 34 34 35 35 35 37 42 46 48 50 53 54 55 53 51 51 53 55 55 55 54 54 51 48 45 42 38 31 24 23 22 16 14 18 20 21 20 19 19 18 17 17 14 12 13 14 16 18 20 22 23 23 23 24 25 27 27 27 28 28 28 28 27
7 7 6 8 13 16 22 22 15 9 5 8 8 13 18 15 16 14 15 25 24 21 23 25 26 31 32 32 36 32 37 47 47 44 44 43 41 37 35 39 42 44 50 53 54 55 57 56 56 57 59 61 61 62 61 58 55 51 49 45 42 35 27 23 23 19 14 16 19 20 19 19 18 18 17 16 15 13 13 13 14 17 19 21 23 23 23 24 25 27 28 28 28 28 28 28 27
7 7 6 10 18 18 20 19 14 11 8 10 11 12 15 14 14 14 13 17 19 17 16 19 21 24 30 34 36 38 42 47 49 46 44 44 41 36 33 36 34 35 41 42 43 45 49 52 55 59 61 64 66 66 65 63 59 56 53 50 47 40 31 24 23 21 16 14 16 19 19 18 18 17 17 16 14 12 12 13 14 16 18 21 22 23 24 24 25 26 28 29 29 29 29 29 27
6 7 7 10 16 16 18 16 11 8 8 11 13 12 14 13 13 13 12 11 14 14 12 18 18 20 29 29 26 35 45 47 47 45 44 43 40 33 30 30 29 33 37 32 32 35 38 43 48 53 57 61 64 68 70 68 65 61 59 56 52 45 37 27 23 23 20 15 14 17 18 18 18 17 18 18 16 14 12 12 14 15 18 20 22 23 24 24 25 27 28 28 30 29 29 28 27
5 7 9 10 13 15 15 11 8 7 9 12 13 12 13 12 12 12 10 10 11 11 14 18 16 19 28 29 26 31 42 47 46 45 44 43 39 33 30 29 29 36 39 35 36 39 41 46 49 53 55 57 61 68 72 73 72 69 66 62 56 49 42 32 24 24 23 19 14 14 17 18 18 18 17 18 19 17 13 12 13 14 16 19 21 22 23 24 25 26 28 28 29 30 29 28 27
5 6 11 13 14 15 11 8 7 10 13 14 12 10 11 11 12 12 10 10 9 10 14 13 13 18 25 30 33 34 39 44 44 43 42 42 38 32 31 31 34 39 42 42 43 45 46 48 51 54 56 59 62 66 71 74 75 75 72 66 59 52 45 37 29 26 25 22 18 15 15 17 18 18 18 20 21 20 19 15 13 13 14 16 19 22 22 24 24 25 27 28 29 30 29 28 27
6 6 11 16 15 13 10 12 13 14 15 12 11 9 9 11 11 11 10 10 9 9 11 10 13 18 24 31 35 36 38 40 41 40 41 44 36 27 31 35 38 42 42 44 44 44 43 45 49 53 57 63 65 68 74 79 81 80 76 69 62 55 49 43 35 29 27 26 22 19 16 16 18 19 22 26 26 25 27 26 22 20 18 16 16 19 23 24 24 25 26 28 29 30 29 29 28
8 10 14 17 15 15 16 21 19 15 13 11 12 10 10 10 10 10 9 10 9 10 11 10 12 16 27 38 39 37 38 39 40 41 42 46 40 30 34 39 39 39 39 40 38 38 40 45 49 54 60 64 67 71 78 85 87 84 79 73 67 60 54 48 41 34 31 30 27 24 20 17 20 25 31 37 37 36 41 44 39 33 29 25 21 18 20 23 24 24 25 27 28 29 30 29 28
10 16 19 19 15 16 20 20 17 16 13 11 14 11 11 12 11 11 10 10 8 9 10 8 14 18 26 36 38 37 39 40 39 42 42 42 42 35 35 38 37 37 37 35 33 36 42 45 50 58 66 67 69 74 82 91 92 88 83 78 73 67 60 54 47 41 36 35 33 28 24 23 25 31 40 46 49 52 54 51 44 37 35 34 34 32 26 21 23 25 25 26 28 29 29 30 29
13 20 22 20 17 15 16 17 16 18 15 11 14 12 12 12 14 15 13 11 8 12 13 8 16 27 33 34 35 39 41 42 39 41 42 40 39 34 34 37 36 36 35 34 32 36 41 43 51 61 65 68 72 77 87 96 94 90 87 82 79 73 66 60 53 47 43 40 37 33 29 29 32 37 43 46 49 56 52 46 42 37 35 34 38 45 41 28 21 23 25 25 26 28 29 29 30
15 22 23 22 18 14 14 16 18 20 16 13 14 12 12 13 14 17 16 13 11 17 21 15 20 33 42 44 44 45 42 41 41 40 41 42 39 32 32 34 31 30 31 32 31 32 38 44 52 58 62 68 75 82 93 100 95 92 90 86 83 78 71 63 56 52 49 46 42 38 35 35 37 40 42 42 43 49 46 42 43 39 34 32 35 41 46 43 32 25 24 26 25 25 28 29 30
15 20 22 23 18 13 14 16 19 19 16 14 14 12 13 15 14 16 17 16 14 20 30 32 34 42 49 51 50 47 45 44 44 42 42 43 40 32 28 26 23 25 28 29 26 27 38 47 53 58 63 70 76 85 96 100 95 92 91 88 85 81 74 67 60 55 54 52 47 43 42 38 35 35 39 43 45 47 46 44 45 43 37 33 34 36 40 46 46 38 28 25 27 26 26 27 29
14 17 19 21 16 11 12 17 19 17 15 14 14 14 13 16 19 19 20 24 21 23 37 40 40 48 50 50 50 48 48 49 47 46 46 41 35 29 24 22 23 27 29 28 27 29 40 49 56 61 63 70 80 89 97 97 95 95 95 92 87 83 78 72 66 62 61 61 56 50 45 36 31 36 44 51 53 52 52 52 52 49 43 38 36 36 35 38 45 46 37 28 26 27 27 26 27
12 15 17 16 11 8 12 17 18 17 17 15 13 14 12 15 24 23 21 26 23 24 36 38 37 42 42 43 45 47 50 51 50 49 44 36 30 25 20 22 28 31 31 30 33 36 45 53 58 62 61 68 80 86 92 94 96 99 95 91 89 85 82 76 69 67 67 69 65 54 41 34 39 49 56 58 58 58 59 59 56 50 44 41 38 37 37 38 40 42 39 34 28 27 28 28 26
14 15 16 11 7 8 12 16 17 16 16 15 13 14 12 12 22 24 23 29 30 28 35 39 39 39 41 45 44 46 49 49 51 50 42 33 27 23 23 29 33 31 30 33 38 43 47 53 57 61 64 71 80 83 87 94 96 96 89 88 89 85 84 78 71 70 70 72 67 51 39 43 52 57 59 60 61 61 62 61 55 50 47 43 40 40 43 44 44 41 38 37 33 27 27 30 29
18 17 14 8 7 9 10 13 15 15 16 17 14 14 13 11 20 26 23 29 34 31 33 38 38 36 42 48 48 48 47 47 52 49 39 33 28 26 29 33 33 28 29 33 37 42 43 44 52 61 69 75 83 87 90 95 95 91 85 86 89 88 89 83 75 73 69 69 61 46 41 48 52 53 57 61 62 63 63 61 55 52 51 46 42 44 47 50 50 48 43 39 39 33 26 28 31
18 18 14 9 10 10 9 12 15 16 17 17 14 13 14 11 17 22 15 17 24 25 28 31 32 33 38 44 47 49 47 46 50 44 36 37 35 37 41 36 31 28 29 32 33 38 39 42 52 62 74 78 82 88 89 92 92 89 88 88 88 90 93 88 81 74 67 64 55 43 40 44 49 54 60 63 63 64 64 61 57 55 53 50 47 46 50 55 55 53 49 42 41 41 32 25 28
19 17 16 13 12 13 12 15 17 18 17 16 15 14 14 12 12 15 12 12 17 20 21 26 31 32 38 45 44 47 48 42 46 45 41 48 52 59 67 58 48 42 35 32 34 41 42 48 55 60 74 77 75 81 85 91 93 90 91 90 87 88 93 94 86 74 66 62 51 40 39 44 56 63 64 65 65 65 65 62 59 58 56 53 53 52 54 57 57 55 54 49 43 43 40 28 23
24 17 15 15 14 16 15 15 16 16 16 16 16 14 13 13 12 12 12 13 17 21 24 29 32 30 36 45 43 45 46 38 41 45 44 53 59 59 62 56 51 52 46 41 44 50 52 59 65 64 72 73 73 78 81 89 93 92 92 89 89 90 93 97 88 74 67 62 49 42 45 54 65 67 65 66 65 62 60 59 59 58 53 53 56 58 58 58 59 58 58 57 50 44 45 40 27
28 20 15 15 14 15 14 14 14 15 17 17 16 15 13 13 13 12 12 14 18 26 33 33 32 31 35 41 43 43 41 34 30 32 36 42 43 39 37 35 35 40 48 58 60 60 62 69 75 73 71 76 81 81 81 88 90 94 95 90 92 91 92 96 86 74 69 62 53 52 58 65 67 66 68 68 64 60 57 56 58 57 56 58 59 59 60 60 60 61 62 62 58 51 49 51 41
27 24 20 19 16 15 14 14 14 14 16 16 15 14 13 13 12 12 12 14 17 19 25 31 33 33 35 39 44 44 41 38 31 29 32 32 30 31 35 36 35 36 45 64 76 76 74 75 79 77 73 80 87 83 82 87 86 90 93 88 90 88 89 94 85 75 69 62 61 64 67 70 69 70 70 65 60 59 59 58 60 59 59 61 60 62 64 63 63 65 66 64 63 59 53 54 51
25 24 22 20 18 16 15 14 14 13 14 15 15 13 14 14 12 13 12 16 19 14 21 34 37 34 35 40 43 41 40 41 39 35 33 30 27 33 42 42 43 45 45 55 71 78 76 73 74 73 73 79 87 89 84 84 86 88 87 84 86 85 84 90 86 77 70 66 68 71 73 73 73 71 64 58 58 60 59 58 61 61 56 55 58 64 67 66 68 70 69 67 66 65 63 59 57
25 23 21 19 17 16 15 13 13 13 13 14 14 13 14 14 13 13 11 16 19 17 29 40 37 33 35 40 39 36 36 38 37 35 33 31 27 33 45 47 46 46 46 50 53 60 69 71 67 67 75 82 89 91 82 80 86 87 85 84 83 81 80 86 87 80 74 72 73 73 75 72 68 63 54 53 58 59 58 59 60 57 52 51 54 61 69 71 72 73 71 70 69 70 73 70 67
24 23 21 18 16 15 14 13 12 12 13 13 14 13 14 13 13 13 11 15 18 24 36 34 30 33 34 35 34 32 35 36 35 35 34 33 30 29 37 47 46 41 47 50 42 48 67 72 67 68 77 84 88 88 80 82 86 85 87 87 81 79 80 83 85 82 79 77 77 75 72 67 63 58 52 53 54 52 56 62 60 54 50 52 57 62 71 75 74 75 73 72 72 72 75 78 77
21 21 20 17 15 14 13 13 12 12 13 13 14 14 14 13 12 11 10 12 17 29 33 24 28 35 32 32 30 30 35 36 34 36 34 32 32 28 32 44 44 40 44 41 38 51 66 68 68 73 79 82 84 84 83 88 89 86 88 84 78 78 77 75 74 75 74 72 72 69 64 60 59 55 51 52 52 51 56 63 61 54 53 57 61 66 71 74 76 76 74 74 75 72 73 78 79
18 18 18 17 16 14 13 12 12 12 13 14 14 14 14 13 11 10 10 10 15 26 25 21 31 35 30 31 32 32 35 35 34 34 32 31 31 27 31 40 41 44 39 29 38 55 65 71 72 76 80 81 83 84 84 88 88 85 83 79 76 73 68 63 62 62 62 62 59 56 54 53 53 51 51 52 52 54 58 61 58 51 55 63 64 67 70 72 76 78 77 76 76 73 72 72 73
18 19 18 18 16 14 12 12 12 13 13 14 14 14 14 13 13 10 10 10 11 19 22 23 33 33 26 29 34 36 33 31 33 34 31 31 30 28 31 38 42 43 33 29 46 61 70 76 74 74 78 80 82 82 82 84 84 82 77 71 67 62 58 57 56 55 54 54 52 50 50 50 49 49 53 55 54 57 58 58 56 51 58 67 65 66 70 71 74 79 78 78 78 75 71 67 69
17 19 20 17 17 16 14 11 12 13 14 15 14 14 14 13 13 11 10 11 10 13 20 28 35 30 24 28 32 32 29 29 34 34 32 30 28 29 34 37 37 33 28 33 50 62 71 75 73 72 74 77 78 77 78 79 80 78 68 58 54 52 54 56 56 54 51 50 49 48 49 50 49 49 53 53 54 58 55 53 54 52 58 65 63 66 70 70 73 75 75 76 78 76 74 71 69
17 18 20 19 18 19 17 13 10 12 13 14 14 14 14 12 13 12 10 11 10 12 19 29 32 25 26 32 31 28 28 32 35 33 31 29 27 31 35 35 30 28 29 34 45 55 65 73 73 70 70 72 73 74 75 74 73 68 58 50 48 48 51 53 53 53 49 45 46 44 43 43 41 40 41 43 49 55 50 51 55 53 59 64 62 65 69 72 73 72 74 76 75 74 76 72 66
16 18 20 20 20 20 18 14 11 11 12 13 14 13 13 13 12 12 11 11 11 11 15 22 23 22 30 35 31 27 29 34 35 32 30 28 29 34 35 33 28 27 31 36 41 49 61 74 73 67 69 69 68 70 68 68 65 56 48 45 44 46 49 50 51 52 47 44 46 43 40 40 37 36 38 41 46 50 50 52 53 55 63 64 62 63 65 70 72 71 75 76 73 71 72 69 63
18 19 20 20 21 20 18 18 16 14 14 13 13 13 12 13 12 12 11 11 11 10 14 23 26 29 36 35 28 26 29 34 33 30 29 28 31 35 36 34 28 27 34 36 39 49 64 74 70 64 66 65 64 62 58 59 56 46 41 42 44 47 51 53 52 52 46 43 43 40 40 41 39 41 44 47 45 46 52 52 49 58 65 61 61 62 62 67 70 72 76 77 74 72 71 68 64
21 20 20 20 21 21 20 21 20 18 16 14 14 13 12 11 11 12 12 11 11 10 14 21 27 34 37 31 28 30 35 39 35 31 29 28 31 33 34 32 27 28 35 36 41 54 63 66 64 61 61 61 61 57 55 54 46 40 39 40 45 46 48 50 49 47 42 40 40 38 39 35 32 41 48 51 50 47 50 50 49 61 66 59 59 58 59 66 68 69 74 76 77 76 75 73 69
22 21 19 18 19 21 20 20 20 19 19 17 16 15 13 11 10 10 11 12 11 10 10 13 21 32 36 33 33 34 36 37 35 32 29 29 31 32 34 30 25 32 38 38 48 58 57 57 59 58 57 56 55 54 55 49 40 38 38 38 40 40 40 41 39 38 34 34 36 36 39 33 25 35 48 55 56 50 47 49 54 62 63 57 54 53 56 63 64 67 73 76 77 76 76 78 74
23 21 19 19 20 21 20 19 20 20 20 20 19 18 14 11 10 9 11 12 10 10 10 10 12 21 31 37 35 28 29 34 33 30 29 31 33 33 34 30 25 32 39 42 52 59 54 55 57 53 51 50 50 53 52 44 37 35 36 37 38 35 33 34 33 33 31 30 29 31 41 47 39 36 43 51 56 54 49 51 56 61 62 57 50 51 56 58 61 68 71 73 74 72 74 80 80
23 22 21 22 22 21 21 19 20 19 20 20 20 18 15 11 10 9 10 11 11 9 10 13 14 17 24 29 26 21 24 29 29 30 31 32 35 35 34 30 26 32 39 42 50 57 56 57 56 49 47 47 47 52 48 41 37 33 34 37 36 34 32 33 35 35 35 31 26 23 29 42 52 52 50 49 50 50 48 52 56 56 59 60 54 53 56 57 62 69 70 70 72 72 75 81 82
23 22 22 22 22 22 22 20 20 19 20 21 19 16 14 12 10 9 10 11 11 10 14 24 33 36 32 27 25 26 29 29 30 31 31 33 35 35 31 27 27 35 41 42 49 56 57 58 57 52 48 44 45 49 45 40 36 29 30 35 34 33 33 33 35 36 38 37 31 25 19 20 33 47 54 53 54 55 53 57 60 55 54 57 56 55 57 59 62 65 67 69 71 73 77 80 79
23 23 23 23 23 22 22 21 22 21 21 20 18 17 15 11 9 10 10 10 10 11 15 23 39 48 40 30 27 29 35 37 37 35 32 33 35 34 32 27 28 38 42 43 50 56 59 61 60 57 52 43 40 44 41 37 32 27 29 34 33 32 31 32 35 36 38 40 38 35 29 22 19 23 28 33 42 52 57 60 61 57 56 59 59 56 56 59 60 60 64 68 69 71 76 79 78
23 24 23 24 24 24 24 24 22 22 22 20 19 20 18 12 11 11 11 11 10 14 21 25 36 47 39 30 26 25 30 33 34 35 34 35 35 35 34 28 27 38 42 42 49 57 61 62 57 53 51 43 37 37 37 34 31 30 33 35 34 33 33 33 35 37 38 40 42 41 39 36 30 24 17 13 15 24 37 50 58 58 58 61 61 57 56 59 60 62 64 64 64 67 72 75 76
23 22 23 25 26 25 26 24 21 20 20 19 18 18 18 15 13 15 15 17 16 22 37 41 41 43 38 34 30 22 23 28 29 32 35 37 37 35 32 25 27 39 43 40 47 59 62 59 52 46 46 44 38 33 35 38 35 33 34 35 35 35 36 36 35 38 40 41 43 44 45 45 43 38 27 16 9 8 13 23 36 47 56 64 66 62 61 60 61 64 65 65 67 71 72 74 74
22 21 23 24 24 25 24 23 21 20 20 21 16 16 21 19 16 18 19 23 28 35 44 46 46 47 44 38 30 23 26 31 33 33 35 38 38 34 28 23 27 38 42 41 48 60 62 58 53 48 44 45 45 40 40 46 46 41 37 36 37 35 36 37 37 40 42 43 44 45 47 48 49 49 40 27 16 8 6 7 14 24 40 57 66 67 64 59 59 65 68 68 69 71 73 75 74
22 22 23 22 23 22 20 22 20 18 25 25 16 16 23 25 21 17 19 23 30 42 51 51 54 55 51 39 26 29 36 36 38 41 41 40 36 31 25 23 30 39 44 45 51 60 61 58 58 55 48 46 51 52 48 48 46 42 40 39 38 37 37 38 40 41 42 44 46 46 48 48 49 51 49 42 29 17 8 6 7 9 16 31 45 57 64 66 65 66 66 65 65 67 71 77 76
23 23 23 21 20 19 20 22 18 22 32 26 16 17 21 29 28 20 22 26 26 40 57 64 69 66 55 43 34 37 40 37 41 46 44 40 33 27 24 26 32 39 43 46 50 57 60 58 58 58 53 49 53 58 54 44 37 38 41 41 39 39 40 41 41 43 44 46 47 48 49 50 50 50 51 49 43 32 16 5 6 7 7 16 26 35 47 61 69 67 60 56 56 57 65 76 77
23 22 22 20 19 19 22 20 17 29 37 25 18 22 22 26 32 28 28 30 28 31 39 48 62 64 54 48 46 42 37 37 44 47 45 41 32 25 26 28 33 38 42 46 48 53 56 56 57 56 54 51 53 55 50 40 35 39 42 41 41 42 43 44 44 45 46 48 50 50 51 53 54 53 53 52 49 44 30 12 5 6 9 20 28 28 30 40 51 52 48 51 58 60 64 72 72
21 20 20 22 22 21 28 34 30 31 30 19 17 26 28 28 32 36 32 30 31 31 29 29 36 46 50 49 46 41 36 42 48 47 46 43 32 25 27 29 32 37 41 44 46 48 50 51 53 54 54 53 52 50 46 40 39 41 42 42 43 43 44 45 45 45 47 49 51 52 54 58 60 57 57 56 52 50 41 21 6 5 10 18 23 25 24 24 29 36 44 61 73 72 67 64 60
19 19 18 22 26 27 39 48 38 26 21 17 17 23 33 42 46 43 33 27 28 28 32 37 36 41 49 48 43 40 42 49 51 47 47 43 33 28 29 28 29 34 40 44 46 47 46 47 51 55 56 56 53 51 48 45 43 42 43 44 44 44 45 44 44 46 49 51 53 56 59 61 63 62 62 61 56 51 43 24 8 5 7 9 11 16 22 24 29 38 51 63 64 58 52 48 45
18 19 18 20 24 25 33 40 32 26 22 16 19 23 33 54 64 54 39 33 31 26 32 49 59 59 57 52 46 45 50 54 52 49 47 41 35 32 27 24 25 29 36 43 48 50 51 52 56 59 60 60 57 54 51 49 48 47 46 46 46 45 45 44 48 53 54 54 55 59 60 59 61 63 63 64 56 46 37 21 9 6 5 6 9 17 30 38 43 50 57 58 52 48 47 42 40
18 19 19 19 19 18 24 31 29 27 26 27 40 47 48 62 72 62 48 44 44 34 30 50 70 69 61 54 49 51 56 58 54 50 46 41 40 38 29 24 25 27 32 43 51 55 58 58 59 60 59 59 57 55 53 51 51 53 52 51 48 47 45 47 55 57 56 57 58 58 56 54 57 61 65 66 52 34 25 16 8 6 6 5 8 20 37 47 51 56 58 56 52 53 54 50 48
20 20 21 19 19 18 21 29 29 26 30 45 63 73 71 72 76 70 56 60 73 63 48 61 75 69 60 56 55 58 59 57 54 50 45 43 43 43 37 30 30 31 32 40 48 54 57 57 56 55 54 55 57 57 55 54 56 57 56 54 51 49 48 51 58 58 56 59 59 56 54 53 57 60 66 71 53 25 14 12 8 6 7 6 8 18 32 39 43 49 52 52 51 54 58 59 60
20 20 22 21 20 19 20 28 36 37 39 52 67 75 74 71 73 72 60 68 93 92 78 78 77 70 66 64 65 65 58 54 53 49 48 47 46 46 45 39 37 38 39 43 49 55 58 55 51 50 52 56 59 60 59 59 59 60 59 55 53 53 53 55 59 58 58 62 61 57 57 57 58 60 65 70 54 24 10 9 7 6 7 7 8 13 22 30 36 42 46 46 45 47 53 56 60
19 18 21 23 21 20 19 23 33 42 47 55 64 70 71 67 69 73 64 62 77 87 89 83 76 78 79 73 73 69 58 52 49 48 51 50 45 46 49 48 44 43 46 50 54 57 57 53 49 49 51 54 56 59 62 64 63 63 60 57 59 58 56 59 61 59 60 64 62 58 59 61 60 60 61 57 41 22 12 8 6 7 7 7 8 10 16 25 32 39 44 44 42 43 47 48 50
18 18 20 21 21 21 22 22 26 41 59 68 68 71 76 71 69 78 75 64 62 70 77 73 71 85 88 77 74 70 60 54 53 54 56 52 48 49 54 55 51 49 53 56 57 56 55 52 51 51 51 52 53 55 62 68 68 67 63 63 65 62 59 61 61 60 63 65 60 55 58 62 62 64 59 40 27 25 18 9 6 7 7 7 7 7 12 22 31 36 39 38 38 39 41 44 45
19 18 18 19 24 26 26 26 25 33 60 81 80 78 80 70 65 77 82 74 67 62 60 60 66 81 87 79 75 70 60 57 60 59 56 55 55 58 63 64 61 58 59 61 61 57 55 55 54 54 53 53 56 56 61 70 73 70 68 69 69 63 62 63 60 62 66 62 55 53 57 58 59 68 62 36 29 33 19 7 7 7 7 8 7 8 13 20 24 25 23 22 23 26 30 34 32
27 24 21 19 24 27 29 36 33 27 46 68 71 76 85 74 63 70 81 84 83 74 60 58 65 71 74 73 73 71 65 65 69 67 67 70 69 71 76 75 71 71 73 78 75 64 59 61 61 59 58 57 61 62 64 72 77 77 78 80 74 64 62 62 60 64 64 53 46 49 55 55 55 67 63 40 37 37 16 6 9 7 8 10 9 11 14 16 16 14 12 11 10 12 15 15 14
Wind_Speed
11 11 11 12 12 12 12 12 11 12 14 16 21 22 16 11 14 13 8 5 4 7 9 12 10 12 14 17 12 7 7 3 3 7 9 12 11 11 9 8 8 8 7 7 8 11 12 12 12 11 11 12 13 13 13 12 13 14 15 16 17 18 16 15 14 14 13 11 10 9 8 9 9 10 11 13 14 15 16 16 16 15 14 13 12 12 12 13 14 13 12 12 11 11 10 10 10
10 10 10 11 12 12 13 13 12 12 14 18 22 19 10 7 10 9 5 2 3 1 5 8 11 12 11 12 11 6 4 1 3 5 6 8 6 6 7 9 9 10 9 7 7 9 10 11 11 11 12 13 13 14 13 13 14 14 16 17 17 18 17 16 16 15 14 13 12 10 9 9 10 10 10 12 14 15 16 17 17 16 15 14 13 12 12 13 14 13 12 12 11 10 10 10 9
10 9 9 11 13 14 14 15 13 11 13 20 19 12 7 3 4 3 3 5 10 6 7 7 13 12 6 6 9 9 5 2 4 6 3 4 6 6 6 8 9 10 10 8 7 8 9 9 10 10 12 13 14 14 14 13 14 15 16 17 17 19 19 18 17 17 16 14 13 11 10 10 10 10 10 11 13 14 16 17 17 16 16 15 14 13 13 13 13 13 12 12 11 10 10 9 9
10 9 10 12 14 15 15 16 15 13 17 21 14 8 9 2 7 7 6 10 11 10 8 6 10 11 5 4 6 7 6 3 4 6 7 3 3 4 5 6 8 10 9 8 8 7 8 8 9 10 12 14 14 14 13 13 14 15 16 17 17 19 19 19 18 19 18 16 14 13 11 11 11 10 10 11 12 14 15 17 17 16 16 15 14 13 12 13 14 13 12 12 11 10 10 9 8
10 10 11 12 14 15 15 15 16 18 19 20 12 5 6 2 5 9 8 6 4 7 7 6 7 8 6 6 4 5 5 5 7 8 10 9 5 2 3 7 10 11 10 9 8 8 7 8 9 10 12 13 14 14 13 14 14 15 15 16 17 18 19 20 19 20 19 18 16 14 13 12 12 11 11 11 12 13 15 16 17 16 16 16 15 14 13 13 14 14 13 12 11 11 9 8 8
10 11 11 12 14 14 15 16 18 21 18 17 14 7 7 3 1 4 5 5 4 6 5 4 5 5 5 7 5 4 4 3 5 6 7 8 6 4 4 9 11 10 9 8 8 8 8 8 9 11 12 13 13 13 13 14 14 14 14 15 16 17 19 20 20 20 20 19 17 16 15 14 13 13 12 11 12 13 14 15 16 17 17 16 16 15 15 14 15 14 13 12 11 11 10 8 7
10 11 12 13 15 14 16 18 18 20 16 15 14 11 8 2 1 2 3 7 7 8 8 7 7 6 6 5 3 4 2 2 1 2 4 5 4 3 6 10 11 9 7 7 7 7 7 8 9 11 12 13 13 13 13 13 12 12 13 14 15 16 18 20 20 21 21 20 19 18 17 15 14 13 13 12 12 13 14 15 16 17 18 17 17 16 16 15 15 15 14 13 12 11 10 9 7
10 12 13 14 15 15 16 19 18 19 13 11 14 11 6 5 6 8 5 9 11 9 8 9 8 9 9 6 5 5 2 1 1 2 4 4 3 5 9 11 10 7 6 6 6 5 6 7 8 10 11 11 12 11 11 11 11 11 11 12 14 16 17 19 20 20 20 21 21 20 18 16 15 14 14 13 13 13 13 14 15 16 17 18 18 17 17 16 16 16 15 14 13 11 11 9 8
11 13 14 14 16 15 16 19 18 17 10 5 10 11 9 9 9 7 3 8 9 8 6 7 6 8 9 8 9 8 4 2 0 2 2 4 7 10 13 11 9 7 6 5 5 4 4 5 5 6 7 8 9 10 10 10 10 10 10 11 13 15 16 17 19 20 20 21 21 21 20 17 16 15 15 14 13 13 14 14 14 15 16 17 18 18 18 17 17 17 17 16 14 13 11 10 9
12 13 15 15 14 13 15 19 16 11 6 4 10 12 12 11 8 6 10 10 7 6 6 8 7 8 10 9 9 8 6 4 1 1 1 5 12 14 13 11 9 8 6 5 4 3 3 4 4 5 5 6 7 8 9 9 10 10 11 12 13 14 15 16 18 19 20 21 21 21 20 18 16 15 15 14 13 13 13 14 14 14 15 17 18 19 19 19 19 18 18 17 16 15 13 12 11
13 14 15 15 14 14 16 17 13 7 6 9 13 13 13 9 10 13 14 11 7 6 7 9 8 9 11 10 8 8 7 6 3 0 1 7 13 14 12 10 9 8 6 5 4 4 4 5 6 7 7 7 6 6 7 9 10 10 11 12 12 13 14 15 17 19 20 20 20 20 20 18 16 15 14 13 12 12 12 12 13 13 14 15 17 19 20 21 20 20 19 19 18 17 15 14 13
14 16 15 16 15 15 16 15 12 10 9 10 16 15 12 5 16 20 19 11 6 9 10 10 10 9 12 12 10 9 9 7 5 3 3 9 14 13 11 11 9 8 7 6 6 5 6 7 8 9 9 8 7 7 8 9 10 10 11 11 12 12 13 15 16 18 19 19 19 19 18 17 16 15 13 12 11 11 10 10 10 11 12 13 15 18 20 22 22 21 21 20 20 19 17 16 15
14 16 15 16 14 14 14 14 11 12 9 8 12 8 5 7 16 17 19 13 7 10 11 13 12 9 13 14 12 10 10 9 6 5 7 11 14 12 11 11 9 9 8 7 7 6 7 7 8 9 9 8 8 9 9 10 10 11 11 11 11 12 13 15 16 17 18 18 17 17 16 16 15 14 13 11 10 10 10 9 8 9 10 12 13 15 18 21 22 23 22 22 21 20 20 18 17
13 15 15 14 14 14 15 13 10 12 9 10 7 3 3 5 9 9 14 14 14 13 12 14 11 8 13 13 12 12 11 10 7 7 10 12 13 12 11 11 11 10 9 8 7 7 7 7 8 9 9 9 9 10 10 11 12 12 12 12 12 12 13 14 15 16 17 17 16 16 16 16 15 15 13 11 10 10 10 8 6 6 8 10 12 13 14 18 22 24 24 23 23 22 22 21 20
14 15 13 13 14 15 15 12 9 10 7 12 7 1 1 2 5 7 12 11 13 12 8 11 8 6 10 11 11 12 11 9 8 10 13 12 12 12 11 12 11 10 9 7 6 6 7 8 8 8 9 10 9 9 11 13 13 13 12 12 12 12 13 14 14 15 16 16 16 15 15 15 15 14 13 11 11 10 8 5 2 4 7 8 10 10 11 13 18 23 25 24 24 24 23 23 22
16 13 10 13 15 16 17 12 9 10 5 9 8 5 2 3 7 8 8 6 9 9 6 8 8 5 7 8 8 9 9 8 10 12 13 13 13 12 12 12 10 9 8 6 5 6 7 8 8 8 9 9 9 10 12 13 14 13 13 12 12 13 13 13 13 14 14 14 14 14 14 13 13 13 12 10 9 8 6 4 2 2 6 7 8 9 10 11 13 17 23 25 25 25 25 24 23
18 15 12 14 17 19 18 13 11 9 4 9 10 6 3 2 7 9 6 7 10 9 6 6 7 6 6 7 6 6 7 9 11 12 12 14 13 13 13 12 10 8 7 5 5 7 8 8 8 8 9 10 10 10 12 13 13 13 12 11 12 13 13 12 12 12 12 13 13 13 12 12 12 12 11 9 8 5 4 4 2 2 7 8 7 9 10 11 11 12 17 23 26 26 25 25 24
21 18 16 18 20 21 18 14 11 6 6 10 12 7 3 3 4 7 6 8 8 8 7 6 8 8 7 6 5 5 6 9 11 11 13 14 14 15 14 12 10 7 5 4 5 7 9 9 8 9 10 10 10 10 12 13 12 12 10 10 12 12 12 11 12 12 11 11 12 13 13 13 13 12 10 8 6 4 3 3 1 4 9 9 8 9 10 11 10 10 12 17 23 26 26 25 25
22 19 19 22 21 19 17 13 9 8 12 13 14 10 2 0 4 8 6 8 8 7 8 8 9 8 5 4 4 4 6 8 10 12 14 14 14 15 12 10 8 6 5 5 7 8 9 9 8 9 10 10 10 11 12 13 13 12 10 10 11 10 10 11 12 12 12 12 13 13 14 14 14 12 10 7 5 3 1 0 2 8 11 9 9 9 10 10 10 10 10 12 18 23 25 25 24
22 20 22 24 21 19 18 15 11 11 12 12 17 11 3 1 0 5 6 7 6 8 8 7 7 5 3 3 4 6 7 8 10 14 16 15 15 14 11 9 8 6 6 7 8 8 8 8 8 9 9 9 11 13 14 15 14 12 10 10 9 9 10 12 12 13 13 14 14 14 15 15 13 11 8 5 3 2 2 3 6 10 11 10 10 9 9 9 10 10 9 10 12 17 22 24 24
21 22 24 23 20 21 19 16 15 12 10 13 17 9 7 1 5 1 2 3 4 5 6 5 5 6 5 3 4 6 7 8 11 15 17 15 14 13 10 9 8 8 7 6 6 6 6 6 7 8 8 10 12 14 14 15 14 12 9 9 10 10 11 12 13 14 15 15 14 15 16 14 11 9 7 5 4 5 5 6 9 11 10 10 10 9 9 9 9 9 9 9 10 13 17 22 25
21 21 23 21 19 22 18 14 14 12 13 16 16 11 8 5 1 5 7 7 6 6 6 6 7 9 10 8 6 7 7 8 12 14 14 13 12 12 11 10 9 7 6 4 4 5 5 6 7 7 9 11 13 14 14 16 15 11 9 11 12 12 12 12 13 14 15 14 14 15 15 13 11 9 7 5 5 7 7 9 10 10 9 9 9 9 9 8 8 8 9 9 10 11 14 19 23
19 20 20 20 19 21 17 12 11 11 13 15 15 16 11 7 4 5 10 11 8 7 7 8 9 11 11 9 7 8 9 9 11 11 12 12 13 12 9 8 8 6 4 4 4 5 5 6 8 9 10 12 13 15 16 16 13 10 11 13 13 12 13 13 14 15 16 15 15 16 15 13 11 9 8 6 6 7 9 10 9 8 8 8 8 8 8 8 7 8 9 10 10 11 12 14 19
17 19 18 18 19 19 16 14 14 13 14 15 18 20 17 14 9 5 9 11 7 6 6 9 10 11 10 6 3 5 9 11 11 12 13 14 14 11 6 3 3 3 3 4 5 6 7 8 10 11 12 12 14 16 17 15 12 12 12 12 12 13 14 14 15 17 17 16 16 16 15 13 11 9 8 7 7 8 9 9 8 7 7 7 7 7 8 8 8 7 8 9 10 10 10 11 13
17 18 15 15 17 18 16 16 18 17 18 18 18 19 17 17 15 10 10 10 6 5 5 8 11 10 8 7 5 6 9 11 11 11 11 13 13 12 9 8 7 5 5 5 6 8 8 9 11 12 12 14 15 16 17 14 11 12 12 11 13 13 13 14 17 18 18 18 17 15 14 12 10 9 9 8 8 8 8 8 7 6 5 5 6 7 7 7 8 7 7 8 9 10 10 10 9
16 16 15 16 18 18 17 19 20 17 17 17 15 13 11 12 13 11 13 12 8 8 8 10 12 9 6 7 8 9 9 8 8 8 9 10 10 10 8 9 11 9 8 7 7 9 9 8 10 11 13 14 15 16 16 13 11 12 12 10 13 13 15 17 19 20 19 18 16 14 12 11 10 10 9 8 8 8 8 7 6 5 4 3 5 6 7 6 7 7 7 7 8 9 10 9 8
15 16 18 21 22 22 22 22 22 19 18 17 16 12 10 11 9 7 12 15 11 9 10 10 10 8 6 7 9 8 7 7 7 8 7 7 7 8 7 8 10 9 11 10 7 8 7 6 8 10 11 13 13 13 13 11 10 11 10 10 12 14 16 18 20 22 21 18 15 13 11 10 10 9 8 8 8 8 7 7 7 5 4 4 5 6 6 6 6 6 7 7 6 6 7 7 7
17 19 22 23 23 25 24 22 22 22 21 19 18 16 14 15 13 10 12 17 15 10 10 11 9 9 8 9 10 7 5 5 5 4 4 5 7 8 7 7 8 7 11 11 7 7 6 6 8 8 9 12 14 12 11 10 12 11 9 8 10 12 14 18 20 22 21 19 16 14 11 10 10 9 8 8 8 7 7 7 7 5 5 5 5 6 7 7 7 7 7 7 5 5 5 6 7
21 20 22 23 23 25 25 21 19 19 20 18 19 19 18 18 18 18 16 18 18 13 13 13 11 11 11 11 11 9 7 5 3 1 4 7 8 9 9 8 6 5 6 6 7 7 7 8 8 6 7 10 11 10 10 11 12 11 9 8 8 9 12 17 20 20 20 18 17 15 13 12 11 10 10 10 9 7 7 7 6 6 5 4 5 6 7 8 8 8 8 7 6 5 6 7 7
21 20 22 22 23 27 26 21 19 18 17 15 17 21 21 19 18 19 18 19 20 19 18 14 15 16 14 13 12 11 10 6 3 3 6 9 9 10 11 8 5 3 2 3 7 7 7 8 6 5 6 6 7 9 11 12 12 11 10 9 10 13 14 15 16 15 16 15 15 15 13 12 12 12 12 11 9 8 7 7 7 7 6 4 5 6 8 8 6 7 9 9 8 7 7 7 7
18 18 20 19 22 28 26 21 20 19 15 13 16 21 23 19 16 14 15 20 22 23 20 15 18 20 16 14 13 13 11 7 3 5 8 9 10 11 9 7 4 2 2 2 5 6 6 7 6 5 6 8 9 11 13 13 13 13 12 12 15 16 15 15 15 14 14 13 12 12 11 11 12 13 12 11 10 9 8 7 7 7 6 5 5 6 7 7 5 6 8 9 9 8 9 9 8
19 18 19 18 21 27 26 23 22 20 15 13 18 23 24 21 17 14 14 19 23 24 21 17 20 20 17 16 15 14 11 7 5 5 9 9 10 11 8 6 5 4 4 4 6 6 6 7 7 6 9 12 13 15 15 14 16 16 15 16 17 16 14 13 12 12 12 11 11 12 12 13 13 13 12 12 12 10 9 8 8 9 6 5 6 7 7 7 6 6 7 7 7 8 10 9 8
22 21 21 20 20 22 23 24 24 22 17 15 19 23 24 22 20 17 14 18 24 25 20 19 22 20 19 18 17 16 12 9 7 8 9 9 10 11 9 8 6 5 5 5 5 5 4 6 7 9 11 13 15 16 16 16 18 18 18 18 17 15 14 13 13 12 12 12 12 13 13 14 14 13 13 12 12 11 10 9 10 9 8 6 7 8 8 8 8 7 8 8 8 10 11 9 8
27 25 24 22 18 17 20 22 22 23 22 21 22 25 26 25 23 20 18 19 25 25 20 21 22 22 23 22 19 16 12 10 9 9 8 8 10 10 8 9 8 6 5 4 3 3 4 6 9 12 13 14 16 16 17 18 19 20 20 19 17 15 14 14 13 13 12 11 11 11 12 13 14 13 13 12 12 11 10 10 10 10 9 8 8 8 9 9 9 9 9 9 8 11 12 10 10
30 26 23 20 19 19 20 20 18 18 22 23 24 26 28 28 26 24 21 21 25 25 22 23 24 26 26 24 20 15 12 12 11 10 9 8 8 7 8 10 9 7 4 3 1 2 5 9 12 12 13 14 15 16 16 18 20 20 19 18 15 13 12 12 11 11 10 8 7 6 8 10 11 12 12 12 12 12 11 12 12 11 9 9 9 9 9 9 9 10 10 9 10 11 12 12 11
26 23 21 19 19 21 22 21 19 17 20 23 24 27 28 29 29 26 23 23 25 26 24 25 27 29 28 25 19 15 14 14 13 12 9 9 7 6 8 9 9 6 3 3 2 4 8 11 12 11 12 12 13 14 14 16 18 19 18 16 13 12 11 11 10 9 7 6 6 5 5 6 7 9 10 11 12 12 13 13 12 11 11 11 11 11 10 10 11 11 11 11 12 12 12 12 12
25 23 20 19 21 25 24 23 22 19 22 26 26 27 29 31 31 28 26 25 27 26 22 22 26 30 30 25 20 16 16 16 14 12 9 8 6 6 6 7 8 6 3 4 5 9 11 11 10 10 10 11 12 12 12 14 16 17 17 16 14 13 12 11 11 9 8 7 6 4 3 3 5 7 8 10 11 12 13 13 12 12 13 12 12 11 10 11 12 13 12 12 12 13 12 11 11
27 27 24 22 24 28 27 26 25 20 21 26 26 28 33 33 30 30 32 29 29 28 24 21 24 31 32 26 21 19 18 17 14 11 9 7 4 5 5 7 8 5 4 5 9 12 12 10 10 9 9 12 13 13 13 15 16 15 15 16 15 15 14 14 13 12 11 9 7 5 4 4 4 6 7 8 9 10 12 12 12 13 13 12 12 10 10 12 13 13 13 12 12 12 12 11 11
23 26 26 27 27 27 27 27 25 19 20 24 24 27 34 33 27 28 35 34 30 29 25 21 22 29 32 27 22 21 20 17 13 10 8 4 3 4 5 8 9 6 6 7 12 13 11 11 11 10 11 11 12 15 16 17 18 17 16 16 16 15 15 15 14 13 12 10 8 6 5 5 5 6 7 7 8 9 10 11 12 11 11 11 12 11 10 12 13 14 13 13 13 13 12 12 12
22 24 27 30 27 25 28 28 22 18 20 24 26 26 30 32 29 29 35 36 32 28 23 21 24 30 32 28 23 21 18 14 12 9 6 3 2 3 5 9 10 7 7 9 12 12 11 12 13 13 12 11 13 17 19 19 18 18 17 17 16 15 14 14 13 13 12 11 9 8 6 5 4 4 6 6 7 8 9 10 10 10 10 11 11 11 10 12 14 14 13 13 14 13 12 12 13
23 24 26 29 26 23 26 26 24 24 20 17 21 21 25 30 29 30 34 33 31 28 23 22 27 31 31 28 23 19 13 10 9 8 5 1 1 4 7 10 9 8 8 9 11 11 11 13 14 14 13 13 15 19 20 19 18 18 18 17 16 15 13 12 12 11 11 10 9 8 7 6 5 4 4 5 5 6 8 9 9 10 11 11 11 11 11 12 13 13 12 12 13 13 13 13 13
24 24 25 26 25 25 26 24 22 25 19 11 14 10 17 25 27 30 33 32 28 24 22 24 29 33 32 26 22 18 13 9 8 6 4 2 2 6 9 10 10 10 10 11 12 11 13 14 14 14 14 15 18 20 21 19 17 16 15 14 13 11 10 10 11 10 9 8 7 6 5 5 5 5 3 3 4 5 7 8 9 10 11 12 12 12 12 13 13 13 13 13 13 13 13 13 12
25 23 21 22 23 23 25 23 16 18 18 14 16 11 8 18 23 24 25 26 23 21 23 27 32 34 30 25 22 18 15 13 10 8 6 4 4 6 9 11 10 11 12 13 13 13 15 15 14 14 15 17 20 21 21 19 17 15 14 12 10 9 8 8 8 8 7 6 5 4 3 2 3 4 3 2 2 4 7 9 10 11 11 11 13 13 12 13 13 14 14 13 12 12 13 13 13
24 19 17 19 19 16 17 17 14 16 20 21 22 15 6 10 14 12 10 12 15 21 29 32 33 33 29 26 21 17 15 14 11 8 7 7 6 6 8 10 10 11 12 12 12 15 17 16 15 14 15 17 19 19 19 18 16 15 14 12 10 9 8 6 6 6 5 4 4 3 2 1 1 2 2 1 1 2 4 6 8 10 10 11 11 11 11 12 13 14 13 12 12 13 14 14 14
21 14 15 19 20 18 18 17 16 16 19 22 22 13 5 6 9 8 4 8 17 26 33 35 34 33 30 26 20 15 14 12 9 7 7 8 8 8 10 10 10 11 12 11 12 16 17 16 16 14 14 16 16 16 16 16 15 15 13 11 9 8 7 5 5 4 4 3 2 1 0 0 1 1 1 1 1 1 1 1 4 7 9 11 10 10 10 11 12 12 12 12 13 14 14 14 14
25 18 18 20 18 18 18 17 18 18 13 18 24 16 6 3 5 9 7 7 17 26 32 33 34 34 30 24 19 16 15 12 10 9 9 11 11 12 12 11 9 11 13 12 13 17 18 17 16 15 15 16 16 16 16 14 14 14 12 10 8 7 6 5 3 2 1 0 1 3 3 4 3 3 3 3 2 2 2 1 1 4 7 9 10 11 11 11 12 12 12 12 12 13 12 12 12
22 19 17 16 16 17 15 15 18 14 8 16 22 14 10 3 2 9 8 7 11 20 30 34 35 34 29 23 20 18 17 14 12 14 15 16 16 15 14 12 11 12 14 14 14 17 18 18 17 15 15 17 17 18 17 14 14 15 13 10 9 7 6 5 3 2 2 3 4 6 7 8 7 6 5 4 3 2 1 0 0 2 4 6 9 11 12 12 13 12 11 12 12 12 12 12 12
15 15 14 12 13 14 13 13 14 6 5 14 14 10 10 6 4 7 8 6 9 14 21 28 35 34 28 24 22 19 17 14 15 19 19 18 18 17 15 14 13 13 14 14 14 16 18 18 18 16 15 17 18 19 17 16 16 15 13 12 11 9 8 6 4 3 4 5 6 7 7 7 8 8 7 6 5 4 4 2 1 2 4 5 7 8 10 12 13 12 11 11 11 11 11 11 12
14 13 12 8 4 5 6 6 5 5 8 12 11 12 9 9 10 10 10 9 10 13 13 18 29 34 31 26 24 20 17 16 19 20 18 17 18 18 17 16 15 15 15 15 15 16 18 19 19 18 16 17 18 18 17 17 16 16 14 13 12 11 9 7 6 6 7 7 8 8 7 7 7 7 7 6 5 5 6 3 1 2 4 6 7 7 7 10 11 10 9 8 7 8 10 11 13
16 15 14 9 3 1 2 3 1 3 9 11 12 11 7 8 9 11 14 15 13 12 13 20 30 34 32 29 25 22 19 20 22 20 18 18 19 19 19 19 17 17 16 16 15 16 17 19 19 19 18 18 19 18 18 18 18 17 16 15 14 12 10 8 8 9 9 9 9 9 8 6 5 5 5 5 5 6 7 5 3 2 2 4 4 6 7 8 8 7 6 6 6 7 9 11 12
16 18 16 14 11 6 3 3 2 3 7 11 10 7 6 8 5 6 12 13 12 10 12 25 35 33 31 29 26 23 22 22 21 20 20 21 21 20 20 19 16 16 16 16 17 17 18 20 20 20 20 19 19 19 18 19 19 19 18 17 15 13 12 10 9 9 9 9 9 8 7 6 5 6 5 4 4 5 7 6 4 3 2 2 3 6 7 7 7 6 6 5 4 5 6 7 8
16 18 18 19 19 15 8 4 3 2 2 4 4 4 8 10 6 4 7 8 11 11 12 25 36 33 31 29 25 23 23 22 21 22 22 23 22 21 21 19 15 15 17 17 19 19 19 19 20 20 19 18 18 18 19 20 20 20 19 18 16 15 13 11 8 8 7 8 8 7 6 5 5 6 6 5 4 5 7 6 5 5 4 3 4 6 7 7 7 7 6 5 4 3 3 4 5
14 16 17 18 17 15 9 4 4 2 1 2 4 8 13 14 9 6 7 10 18 21 22 29 35 32 30 27 25 24 22 21 22 23 22 21 23 23 23 22 18 17 18 19 19 19 19 20 20 20 18 17 18 18 19 20 19 19 19 18 17 16 15 12 9 8 7 7 7 6 5 4 2 4 6 6 5 5 6 6 6 5 5 5 5 6 7 8 8 7 6 5 4 3 2 3 3
16 15 11 10 13 15 9 2 1 1 0 2 6 9 11 9 7 9 10 14 22 28 32 34 35 34 30 27 26 25 22 21 21 21 21 21 23 25 26 25 22 20 20 19 18 19 21 21 20 19 18 18 19 18 18 19 20 19 19 18 17 17 16 12 10 8 6 6 6 6 6 4 0 2 4 6 5 5 6 6 6 6 7 7 7 7 7 8 7 6 5 3 2 2 2 2 3
17 17 14 8 9 12 10 6 2 2 1 1 3 5 5 4 8 13 13 12 16 22 27 29 31 35 33 28 27 26 24 20 18 21 22 22 25 27 27 27 25 23 23 21 19 20 21 20 20 20 20 21 21 19 19 20 21 21 20 18 17 17 14 12 10 7 6 6 6 6 6 5 1 2 4 4 5 6 6 6 7 7 8 8 8 8 8 8 8 6 5 3 2 2 2 3 4
17 15 17 16 11 8 8 8 6 5 3 1 0 1 1 4 12 17 15 12 12 15 20 21 24 29 29 27 27 26 25 21 20 23 23 23 25 27 27 27 27 26 25 23 22 22 21 20 21 22 21 22 24 23 22 22 23 22 20 18 17 16 14 12 9 6 5 5 5 5 6 5 3 3 5 5 5 6 6 6 7 7 8 9 9 8 8 8 8 6 5 4 3 3 4 6 7
15 16 20 20 13 7 6 6 7 7 5 4 2 1 3 6 14 19 17 18 20 19 19 20 22 23 24 25 27 25 23 22 22 23 23 24 27 28 28 28 28 28 26 24 24 24 23 22 24 24 22 23 25 25 25 24 24 22 20 19 18 16 14 12 8 5 4 4 5 5 5 5 4 3 7 7 6 6 6 7 8 8 8 9 8 8 8 8 7 5 4 3 3 4 5 6 7
4 10 15 19 14 9 6 4 4 5 5 7 6 3 5 8 14 20 22 25 28 25 23 23 24 24 21 22 24 24 23 24 24 25 27 29 30 29 29 28 28 28 27 25 24 25 26 26 27 27 25 24 26 27 27 27 25 22 21 20 18 16 14 10 7 5 4 5 5 5 4 4 3 3 7 9 7 7 7 8 9 9 9 9 9 9 9 9 8 6 5 4 4 4 5 5 6
Wind_Direction
237 231 228 228 230 226 223 220 213 221 228 241 247 246 252 264 269 254 238 259 286 338 283 245 224 197 200 204 192 170 152 137 95 107 119 116 133 156 167 180 172 168 186 204 203 207 206 207 205 206 211 213 217 218 220 221 224 227 225 221 216 213 208 202 197 190 183 178 170 165 163 159 157 161 168 170 171 171 170 172 173 172 170 168 165 161 155 151 145 146 149 145 141 135 129 124 119
234 228 227 224 223 215 213 212 208 221 229 243 247 242 248 274 271 262 275 318 109 325 266 202 205 218 216 211 203 201 192 211 21 56 98 99 119 140 166 184 178 181 190 196 191 199 207 212 211 209 211 213 216 217 218 221 225 226 225 222 217 213 209 203 198 193 187 182 177 173 173 164 158 158 165 171 174 175 174 176 176 175 174 172 171 167 161 157 151 152 157 154 150 143 138 134 127
229 222 218 214 214 210 207 208 212 217 220 242 249 232 227 302 320 330 352 106 123 175 229 212 214 223 229 226 214 219 229 247 358 9 20 82 119 130 160 181 179 184 188 187 185 191 205 215 215 213 212 214 215 216 218 222 225 226 227 224 220 215 209 205 199 195 191 187 183 181 183 172 162 158 160 167 174 178 179 179 180 179 177 176 173 172 167 163 159 161 166 162 157 152 146 141 134
227 217 211 210 211 210 206 207 217 220 224 241 249 223 223 321 50 75 86 110 127 175 219 246 214 208 224 234 205 217 236 259 310 323 312 334 120 140 161 190 189 189 191 186 181 184 198 208 212 213 213 215 216 217 221 226 228 228 228 226 223 218 211 207 203 198 194 191 188 188 190 180 169 165 162 165 172 179 182 181 182 182 182 180 176 176 173 169 166 169 175 169 165 161 154 149 143
225 215 211 208 208 211 211 213 218 223 230 238 239 200 204 251 63 84 94 120 164 213 238 274 227 193 201 226 215 221 238 268 279 282 288 296 303 288 192 197 193 193 193 187 178 176 188 199 205 211 214 215 217 220 225 229 230 229 229 228 226 222 215 209 206 201 197 195 191 193 196 187 177 172 169 168 171 178 183 184 185 185 186 185 181 180 179 176 174 178 183 177 173 168 162 160 155
225 216 211 207 210 216 216 218 221 228 237 241 233 173 161 230 11 80 112 161 233 247 252 276 238 203 209 225 221 238 239 246 264 265 284 301 306 290 215 192 192 194 189 183 176 174 184 194 202 208 213 216 219 224 228 231 231 231 230 230 229 226 219 213 209 205 200 198 195 197 199 192 185 179 175 175 175 179 183 185 187 188 189 189 186 185 184 183 180 185 189 185 182 175 171 172 167
225 216 208 204 215 222 220 226 232 242 248 240 230 180 172 274 310 271 182 184 221 237 246 255 258 262 258 245 228 259 234 146 223 270 288 306 306 242 198 189 190 186 179 182 182 181 190 199 206 211 214 217 221 226 231 234 235 234 234 234 233 229 224 217 212 209 205 202 200 201 202 196 189 185 181 181 181 183 184 187 190 190 191 191 190 190 190 189 186 191 194 192 192 185 181 182 180
220 213 209 206 215 225 229 236 240 249 251 238 242 218 221 319 325 304 264 206 213 221 235 239 258 275 265 273 279 279 266 137 35 312 295 278 255 207 192 188 186 174 167 179 183 186 197 210 218 222 225 226 229 232 236 238 238 238 239 239 238 233 228 221 216 213 209 206 205 205 205 198 192 190 186 186 185 186 187 190 193 193 194 194 193 194 194 195 193 195 199 197 197 197 193 191 192
216 212 211 212 219 230 236 241 245 247 240 226 255 247 259 297 307 305 228 192 199 205 214 219 252 266 248 253 261 267 261 228 13 322 302 233 208 199 192 187 184 171 168 177 176 183 198 215 226 235 240 245 245 243 243 242 242 243 244 244 241 235 229 224 219 216 213 212 210 209 210 203 195 195 191 190 188 186 189 192 195 197 199 198 197 197 197 199 199 200 203 202 202 205 204 201 201
213 211 211 215 222 233 237 242 244 241 238 280 291 281 283 285 271 234 189 187 188 181 187 210 253 258 240 238 239 245 245 238 254 313 301 210 195 191 189 182 179 171 178 191 186 199 218 234 244 251 251 253 250 248 249 248 249 248 247 243 238 234 229 224 221 219 217 215 214 213 213 209 202 199 195 192 191 187 188 191 195 199 203 204 203 201 200 201 203 204 206 207 206 208 209 208 208
209 210 214 218 226 232 238 246 241 247 285 316 330 320 303 278 222 210 203 205 208 214 214 222 249 250 241 241 230 223 229 234 222 227 227 198 189 185 181 175 174 173 186 198 202 219 233 252 257 259 256 249 246 247 250 248 247 245 243 239 234 230 227 224 223 222 219 217 216 216 215 212 208 202 197 193 191 188 187 190 193 198 206 210 210 208 205 204 206 206 208 211 210 210 211 212 213
208 210 216 219 228 232 241 257 257 281 299 329 348 339 318 236 195 208 211 210 219 240 244 243 254 247 237 232 224 219 222 225 207 200 201 194 192 186 178 174 174 178 194 202 210 221 230 245 252 255 254 251 248 246 243 239 237 235 233 232 230 226 223 224 224 222 219 217 216 217 216 213 210 204 197 193 190 187 183 185 189 195 205 214 219 217 212 207 208 209 210 213 214 214 213 214 215
209 211 217 216 225 232 244 262 268 291 307 354 2 0 7 156 184 205 206 207 225 245 248 247 255 245 228 217 211 220 219 218 206 199 193 188 192 188 180 182 184 189 197 201 210 222 232 240 245 249 248 247 247 243 238 232 229 225 224 226 226 224 223 224 223 221 218 216 215 215 214 211 207 202 197 192 187 183 177 177 186 194 203 214 222 224 220 213 211 211 213 215 216 217 217 217 217
206 210 217 218 220 227 242 255 261 286 327 21 21 95 91 158 175 189 193 201 211 228 242 240 252 253 236 223 214 220 218 212 196 183 183 184 190 190 189 193 196 197 197 205 215 226 235 243 247 244 242 245 248 245 237 228 226 221 219 220 222 223 222 224 223 220 218 215 214 213 211 208 203 199 197 191 183 180 178 170 179 207 211 214 219 225 226 219 216 215 215 216 218 220 220 220 220
202 206 216 226 221 223 233 238 251 278 349 30 6 283 239 177 151 181 194 200 208 213 226 233 247 259 246 244 234 223 213 200 180 176 178 187 196 195 198 200 200 199 203 211 220 230 239 247 246 242 244 249 251 247 236 227 225 221 218 217 218 221 221 223 224 221 218 215 213 212 210 207 203 199 196 189 180 179 178 158 155 236 230 218 218 224 227 224 220 218 217 218 220 222 223 223 223
197 200 221 235 224 223 222 220 241 266 335 25 354 314 285 178 177 196 199 220 236 219 210 234 237 233 234 241 240 219 202 183 174 180 181 190 199 203 205 203 205 209 215 218 229 243 247 247 243 247 252 254 254 246 234 228 229 222 216 218 219 220 221 222 224 223 219 216 213 211 207 203 199 195 190 182 177 177 166 136 126 265 258 237 223 225 227 226 221 219 219 219 221 223 225 226 225
195 197 221 235 226 223 213 209 233 252 326 16 4 328 290 237 214 210 210 242 248 223 203 225 221 213 214 210 213 202 187 179 181 188 191 195 201 210 209 205 212 218 221 226 242 249 248 247 245 252 257 258 257 245 234 230 230 225 218 221 223 221 221 222 223 225 222 215 212 207 200 194 190 185 179 170 166 161 131 117 130 279 275 257 239 233 231 231 224 219 219 220 221 223 226 227 227
200 199 212 224 223 219 210 211 223 237 314 348 356 331 284 324 243 198 205 236 237 217 191 203 211 196 192 190 189 185 180 184 190 197 200 204 210 212 209 209 218 222 224 231 240 242 242 245 246 251 256 259 251 238 235 234 232 231 226 224 224 222 222 223 223 221 217 209 204 201 195 186 180 174 166 159 151 137 113 114 156 273 270 260 250 244 239 239 235 227 220 218 221 223 225 227 228
206 204 211 222 224 218 216 216 218 258 295 323 339 324 278 134 193 186 224 253 248 236 200 196 213 208 214 225 215 204 195 195 200 205 201 203 212 211 209 216 222 223 221 223 230 235 237 244 248 250 256 254 244 237 233 231 234 234 231 229 224 223 224 222 217 211 205 199 198 194 186 178 172 166 159 153 145 136 129 41 283 272 265 258 252 246 242 244 245 241 228 218 219 221 223 225 228
211 211 215 226 233 229 225 221 229 267 291 329 339 318 235 85 107 199 239 258 243 249 233 207 215 231 243 228 232 225 211 212 210 205 200 203 212 210 212 219 219 221 219 222 228 235 240 246 250 253 257 248 240 241 230 220 227 235 238 236 226 223 223 217 209 204 200 196 195 186 176 172 169 167 164 161 168 207 261 286 277 268 262 255 250 244 241 242 245 248 241 225 217 218 221 223 226
212 218 226 235 241 237 231 229 245 269 281 312 325 294 219 287 5 341 278 261 242 271 276 253 254 277 280 254 246 230 215 215 209 204 201 205 212 213 216 218 219 224 225 230 238 245 251 252 251 253 254 242 233 233 226 221 231 243 244 233 221 216 216 213 204 198 198 194 191 184 176 174 176 182 186 192 224 247 260 265 262 260 257 250 245 240 239 240 241 244 245 234 220 216 217 219 223
211 219 233 240 243 246 242 246 267 277 278 296 306 284 246 230 299 327 316 295 292 315 314 300 297 293 283 271 261 247 227 202 202 203 199 203 213 217 218 217 221 228 231 241 254 257 254 249 242 242 241 236 233 230 231 235 238 238 229 222 218 208 204 209 205 196 191 189 188 185 179 182 189 195 201 206 228 246 251 252 252 253 251 244 240 238 236 236 237 239 244 241 228 221 219 218 220
219 220 229 236 241 252 252 260 279 274 275 291 294 290 279 240 230 302 293 286 299 326 320 300 291 288 279 263 251 244 224 193 192 197 196 205 211 207 203 201 204 208 230 252 258 255 244 236 232 231 231 230 237 238 239 240 233 228 227 227 223 210 203 203 203 194 184 183 187 186 185 189 193 196 202 206 222 239 245 246 246 248 247 240 238 239 235 232 234 236 242 246 238 227 225 225 223
228 227 224 236 245 256 263 271 280 276 277 287 289 291 286 270 267 279 283 284 296 318 304 285 281 282 274 242 197 212 204 189 191 198 204 215 223 230 239 255 235 205 236 261 256 251 236 231 233 231 230 228 233 240 241 237 229 231 227 219 218 214 209 201 197 192 182 184 189 190 192 193 195 198 204 213 227 241 247 245 241 243 246 241 239 240 237 232 233 236 237 245 246 236 230 231 230
230 233 226 235 245 255 265 274 283 282 276 283 286 287 286 278 272 266 279 285 282 288 269 266 275 280 270 234 207 211 206 199 203 208 217 231 250 268 279 307 311 272 245 250 253 252 238 233 235 233 236 231 225 234 240 236 232 228 215 210 218 217 214 206 196 188 182 186 190 191 193 195 202 207 209 217 232 243 243 238 238 241 241 241 240 238 237 233 233 235 234 241 246 240 232 232 233
232 241 244 253 257 260 266 271 278 276 269 276 274 269 272 271 269 261 269 276 263 260 263 260 264 272 273 234 211 212 216 224 226 225 238 252 270 283 293 311 304 283 263 249 240 244 243 239 238 241 248 242 232 234 238 240 234 221 213 220 225 219 218 210 195 186 182 184 189 192 192 197 207 210 211 221 231 235 232 229 228 231 227 230 236 232 231 230 227 227 230 235 238 237 232 231 235
235 247 252 256 260 261 265 267 268 268 265 266 262 259 259 258 263 252 259 268 259 258 261 245 247 267 263 213 200 209 223 237 240 242 256 275 293 297 296 290 280 283 292 285 261 251 252 249 257 260 256 251 244 232 234 238 221 214 223 229 227 223 221 212 196 188 186 185 186 190 190 196 207 209 216 226 229 229 229 226 218 222 225 223 233 231 227 226 216 213 225 231 231 233 232 232 233
249 253 252 245 248 253 254 260 264 265 263 261 262 265 261 255 256 252 250 255 258 260 237 219 233 255 236 207 207 216 214 215 233 251 283 313 312 296 283 270 264 281 301 307 304 285 269 257 264 265 254 255 248 226 221 220 203 209 224 223 222 220 214 210 204 198 196 193 189 188 187 196 209 213 224 229 229 228 230 228 218 221 226 225 235 233 225 223 214 208 219 228 224 221 229 229 221
249 251 258 249 249 252 246 254 262 261 263 260 261 263 262 260 259 259 249 247 254 243 222 221 233 236 225 219 220 217 207 203 224 269 312 319 306 294 293 280 278 300 309 320 320 296 266 259 253 244 252 257 243 215 201 196 193 200 203 207 207 191 188 198 205 206 202 195 191 192 193 202 213 216 227 231 229 227 226 228 220 216 223 222 227 225 220 223 222 215 216 223 221 212 216 213 208
242 242 256 259 260 252 240 247 251 253 265 260 257 259 260 260 261 258 241 241 249 232 226 238 230 224 223 224 223 219 211 200 216 279 304 311 302 304 311 295 284 313 310 319 313 282 254 261 250 235 244 233 215 196 187 183 184 188 188 191 176 159 161 169 175 181 180 179 185 192 197 208 217 219 227 228 225 226 223 224 222 217 217 210 211 210 212 217 221 217 214 219 225 223 217 205 203
242 241 249 258 264 252 236 237 241 246 260 256 255 259 258 258 259 255 229 234 248 232 226 234 223 219 224 224 219 214 212 206 223 275 290 298 304 312 318 300 277 228 214 265 279 256 238 236 225 220 211 192 185 181 179 176 178 180 174 165 156 152 152 149 148 153 160 168 179 190 201 212 220 223 226 223 221 223 219 218 223 224 216 203 205 206 208 212 209 209 211 216 225 227 215 203 199
241 247 252 248 252 254 243 234 234 241 249 244 249 256 259 258 253 250 230 232 247 240 228 221 212 215 229 229 216 211 218 228 228 247 271 288 310 314 304 278 254 231 245 247 235 234 227 214 201 195 187 178 175 172 170 170 170 166 156 149 149 151 149 147 151 157 165 179 192 200 207 212 217 220 221 218 218 218 213 211 217 222 218 207 209 210 207 206 199 194 201 209 213 206 197 195 195
236 242 251 241 242 258 255 241 232 236 242 234 241 252 258 257 250 247 238 236 246 246 232 213 207 219 236 231 219 220 229 238 231 235 261 289 310 309 292 270 264 264 268 256 234 222 215 207 188 176 172 169 167 162 158 158 156 152 149 147 150 153 155 159 166 174 185 198 206 209 210 212 215 216 217 216 215 215 214 213 215 217 216 213 214 215 207 204 202 188 190 200 196 185 181 186 197
227 230 242 242 245 260 262 252 237 232 236 234 239 250 253 252 251 247 240 239 245 247 236 217 215 227 231 223 220 226 230 230 230 238 257 286 302 303 287 274 276 270 258 258 252 220 210 192 175 166 162 159 156 153 151 150 149 149 152 155 160 163 163 167 175 184 194 200 204 208 213 216 216 214 215 215 213 214 215 215 216 215 212 213 215 214 206 208 210 194 192 196 189 184 179 182 193
222 225 238 245 248 251 253 255 248 238 240 241 246 254 253 249 248 246 243 240 244 250 245 234 230 229 223 216 219 225 229 229 229 240 259 279 293 296 283 275 273 265 246 236 226 217 201 177 167 163 161 160 155 153 153 152 153 155 157 161 166 166 164 170 178 183 186 184 183 190 203 211 211 205 204 209 210 209 212 213 214 212 207 207 207 203 200 209 206 192 189 187 184 183 178 181 188
229 230 242 249 249 247 247 254 261 265 262 256 253 255 254 250 246 243 241 239 244 250 244 234 227 221 216 213 217 224 227 226 228 237 253 274 286 285 278 273 265 259 224 198 194 195 187 174 170 166 164 164 161 158 153 152 157 159 160 163 163 159 160 164 165 164 156 144 144 155 178 195 199 197 199 204 205 205 209 213 212 207 203 202 200 194 194 200 196 186 181 178 183 184 176 181 189
239 237 243 249 251 252 253 258 267 278 280 272 265 261 254 250 247 244 240 237 240 244 239 232 226 219 215 213 213 218 219 217 221 230 243 264 282 288 277 265 264 257 205 187 178 176 177 178 182 177 168 163 161 161 155 153 158 159 159 157 154 151 148 145 140 133 122 117 124 134 146 162 178 188 196 200 198 200 207 212 209 204 203 201 200 199 195 194 194 191 184 180 189 191 183 187 194
242 241 246 249 250 255 258 262 272 283 286 280 277 270 257 249 248 245 241 236 236 238 239 240 232 221 216 212 209 211 214 216 217 225 243 260 285 292 268 251 258 244 187 180 169 169 176 182 188 182 170 162 161 166 163 160 159 155 152 147 145 143 137 131 124 115 110 109 115 123 125 128 153 176 189 195 194 196 204 209 208 204 204 201 201 203 197 196 200 196 188 187 194 195 193 197 202
242 240 247 251 250 260 265 265 274 283 282 282 283 275 259 247 247 246 240 237 236 237 241 246 240 228 218 208 208 215 217 217 218 227 242 255 286 277 249 243 249 220 182 177 166 168 180 186 183 173 167 165 166 169 168 165 159 150 144 142 140 140 135 128 120 113 110 108 108 113 120 125 139 166 184 192 190 193 199 204 207 205 202 202 203 203 199 200 204 197 191 193 194 196 200 202 205
239 238 245 250 254 265 270 269 276 279 277 285 288 276 257 247 246 243 238 237 236 237 245 250 247 239 223 210 214 222 220 216 217 225 235 249 280 249 232 241 241 209 181 173 166 171 184 185 176 167 167 168 170 170 167 164 158 150 146 145 143 140 134 126 121 118 115 113 110 108 112 125 141 162 180 189 191 194 196 201 208 206 202 205 207 205 201 201 203 200 197 196 194 199 206 206 209
239 242 246 252 256 260 268 276 285 285 282 300 303 274 250 250 244 232 232 234 234 236 240 236 231 226 214 207 211 216 219 221 218 221 226 238 253 220 227 237 224 190 171 166 167 174 181 181 174 170 171 169 169 168 166 163 159 155 152 149 146 142 136 129 122 118 116 114 112 109 108 115 131 150 168 180 188 195 198 205 212 209 207 209 209 206 198 196 203 208 206 200 197 203 210 211 213
248 245 245 252 258 260 267 275 288 292 290 323 338 287 233 237 231 223 226 230 230 231 233 227 218 210 204 202 206 206 204 201 200 209 205 181 210 219 227 229 208 180 166 164 169 170 173 176 175 175 175 170 168 167 166 164 160 156 153 153 152 147 140 130 122 117 114 112 112 113 111 109 114 121 136 164 184 196 202 208 213 212 208 204 205 206 197 192 200 210 211 206 203 206 212 215 218
253 248 247 256 264 263 263 268 281 292 286 294 313 305 226 212 213 215 221 222 222 220 220 219 212 205 201 202 206 207 204 204 209 206 187 188 214 221 228 225 204 179 168 167 169 167 167 171 174 176 176 172 170 170 169 167 162 157 158 163 162 150 141 134 129 121 112 112 116 117 118 105 95 94 95 115 166 192 202 207 212 215 213 207 206 205 198 193 196 205 211 210 210 213 217 220 223
249 247 249 259 263 256 255 265 270 278 287 290 292 295 262 201 189 192 203 201 206 208 203 204 203 199 198 201 204 209 212 216 223 212 190 192 196 199 215 217 198 178 169 166 167 166 164 167 172 174 176 176 173 172 172 170 171 170 169 175 172 157 152 149 139 125 115 115 117 117 120 79 42 67 82 91 122 184 196 203 210 214 215 216 213 207 202 199 197 202 209 211 213 217 221 224 224
243 238 247 254 257 259 265 267 264 279 295 291 287 288 262 207 185 197 228 188 193 201 200 200 201 198 198 200 200 205 211 213 214 212 205 195 183 185 198 200 189 174 166 163 166 168 166 167 175 178 179 180 177 177 178 179 187 188 182 185 185 176 173 169 154 138 130 125 117 135 167 276 296 332 356 355 358 352 353 219 216 216 216 218 217 210 205 204 201 199 205 212 217 221 225 224 222
246 242 248 251 257 267 269 258 262 284 292 278 285 285 250 220 201 219 243 217 203 201 202 204 201 198 197 197 195 198 198 194 192 193 194 184 174 180 186 180 172 169 168 168 168 173 174 173 177 183 182 181 182 182 183 189 195 192 186 189 194 197 198 193 183 167 154 173 313 301 293 281 268 270 283 299 330 351 357 356 269 227 219 218 216 211 202 200 200 199 204 214 221 227 231 229 227
244 240 242 246 258 270 267 250 260 283 273 264 279 268 231 243 239 225 227 239 235 211 202 201 197 195 195 192 192 193 190 189 191 187 183 177 174 177 177 168 165 172 176 174 173 178 182 180 178 181 182 182 185 185 186 192 191 185 185 194 200 206 213 215 221 246 297 315 313 304 294 282 267 251 246 256 272 294 298 296 268 235 220 218 218 212 203 199 202 206 214 223 228 232 234 234 233
233 235 240 247 261 263 259 252 253 261 249 258 259 218 215 239 234 227 215 222 257 241 217 206 197 193 190 188 188 188 190 196 193 186 181 178 177 175 171 169 170 176 180 178 179 184 186 185 181 181 182 185 190 191 190 189 186 184 192 201 205 211 218 228 245 269 297 312 312 307 304 293 274 256 246 243 245 263 272 253 164 205 212 220 230 224 210 205 205 207 216 225 228 227 228 232 234
236 238 240 239 260 258 248 250 235 209 226 241 219 187 202 233 232 234 230 233 259 264 252 225 206 196 189 185 184 187 192 194 188 183 182 182 180 175 173 175 174 177 181 181 183 188 189 189 186 185 187 189 194 195 192 189 188 192 201 206 210 217 226 239 260 278 297 309 313 314 321 318 293 267 254 248 236 242 257 253 179 181 204 215 227 224 210 206 205 201 205 214 220 222 228 237 239
232 239 247 235 195 121 258 249 244 226 215 207 201 193 185 206 226 239 239 245 258 264 254 226 207 196 188 180 180 188 191 186 183 182 180 182 181 180 181 180 175 176 180 183 186 189 192 193 192 191 190 194 199 198 197 196 196 202 210 214 216 222 232 249 271 287 298 305 311 316 321 320 297 268 252 250 238 228 238 235 200 179 205 217 212 199 192 196 202 200 200 213 228 238 241 240 236
232 237 252 247 226 209 216 217 208 225 203 187 190 199 183 181 197 229 236 245 250 256 238 209 196 188 181 177 180 188 185 178 180 180 181 185 187 188 188 182 177 177 179 186 192 192 193 195 194 193 193 198 204 205 204 203 205 212 218 220 222 225 234 253 279 291 294 296 302 310 314 304 274 253 239 236 230 223 226 220 193 166 174 197 182 178 181 184 191 196 203 218 236 244 241 227 216
247 244 254 260 246 231 230 228 205 205 196 172 159 147 162 164 155 181 216 223 211 217 219 201 192 183 177 179 184 184 177 175 178 180 183 189 193 195 192 187 187 189 187 191 198 197 197 198 198 198 200 204 210 211 209 209 212 217 219 222 228 231 238 255 275 282 283 288 294 302 308 300 264 234 220 211 209 214 214 204 183 163 155 159 161 167 174 180 185 191 200 210 218 224 224 211 204
244 241 254 262 244 226 227 227 198 189 50 99 121 124 139 144 135 150 185 187 182 188 193 190 185 180 180 186 184 174 172 177 179 181 189 198 203 203 198 196 203 206 201 200 203 204 205 208 209 211 212 214 217 215 213 214 217 219 220 223 228 234 244 257 267 273 278 284 292 302 309 310 250 203 199 191 191 205 204 190 171 157 148 147 156 168 174 179 184 189 194 196 198 208 202 192 195
246 235 251 255 222 216 223 219 106 104 157 149 136 135 142 145 145 155 165 171 174 178 180 180 180 181 185 187 179 170 171 179 181 189 201 209 210 207 203 204 209 214 213 208 206 208 211 215 217 219 221 224 226 225 223 223 224 224 224 226 232 241 248 257 264 271 279 286 294 305 315 323 348 162 171 174 182 194 191 176 161 150 144 145 157 172 175 174 177 181 189 191 187 200 200 183 181
252 242 249 250 220 217 217 213 181 104 152 192 107 120 145 169 173 170 168 171 178 178 176 178 184 186 184 180 174 172 172 177 190 203 210 211 208 205 205 207 210 216 219 215 211 212 213 217 222 226 228 229 231 232 231 232 232 231 228 229 238 245 250 258 264 269 279 290 296 303 315 320 304 165 168 174 180 184 176 164 156 147 143 148 158 168 169 166 168 172 180 182 174 184 185 172 174
239 237 245 254 254 236 212 204 193 161 153 190 117 70 201 191 177 172 173 184 194 190 180 177 183 187 183 174 172 175 176 183 201 209 211 209 203 201 204 207 211 218 222 219 215 214 212 216 226 230 231 233 235 233 232 234 236 235 232 234 240 243 250 259 261 265 277 284 290 299 305 303 277 187 180 183 185 183 172 158 154 147 144 151 157 159 157 158 162 166 173 176 178 188 186 179 185
233 227 235 242 238 215 204 208 200 181 159 147 152 263 234 199 182 175 180 192 196 198 193 179 175 182 183 175 173 178 184 191 200 207 211 208 202 201 203 205 210 216 221 221 216 213 214 218 225 230 232 236 239 237 234 233 232 233 235 238 238 239 248 256 251 254 266 266 278 291 290 288 279 205 182 184 191 187 170 155 153 149 144 145 147 147 147 147 148 147 149 155 167 182 186 186 194
246 224 235 237 230 220 210 207 199 175 162 172 178 200 210 194 185 184 189 192 189 191 194 183 174 179 182 179 179 186 194 197 198 203 207 206 204 203 203 205 207 212 216 214 210 211 215 219 224 228 230 233 236 236 236 233 229 230 234 236 235 238 245 248 241 238 236 246 268 277 271 272 274 221 186 183 191 186 167 155 152 146 140 138 139 140 138 133 128 124 123 131 145 158 169 175 180